Tracking 19192 objects as of 21-Jun-2018
HD Live streaming from Space Station
objects crossing your sky now

FENGYUN 1C DEB

Track FENGYUN 1C DEB now!
10-day predictions


NORAD ID: 36257
Int'l Code: 1999-025DWJ
Perigee: 769.6 km
Apogee: 806.1 km
Inclination: 99.1 °
Period: 100.5 minutes
Semi major axis: 7158 km
RCS: 0.0135 m2 (small)
Launch date: May 10, 1999
Source: People's Republic of China (PRC)
Launch site: Taiyaun Space Center, China (TSC)

Note: This is SATELLITE DEBRIS
aabbcc
Your satellite tracking list
Your tracking list is empty




NASA's NSSDC Master Catalog

Two Line Element Set (TLE):
1 36257U 99025DWJ 18167.24361496 +.00001194 +00000-0 +44960-3 0  9997
2 36257 099.1198 343.2878 0025535 039.7306 320.5740 14.33300135251399
Source of the keplerian elements: AFSPC